Weather in Kulada

Russia / Altai Republic     50°41′16″N   85°47′11″E
temp.,
°C
wind,
m/s
gust,
m/s
humid.,
%
clouds,
%
prec.,
mm/h
press.,
hPa
HPBL,
m
24 january, mon
mon2401:00−24ssw119648 0.0 104210
04:00−25ssw119641 0.0 104310
07:00−26ssw119627 0.0 104410
10:00−24sw119538 0.0 104312
13:00−16nne118816 0.0 1037145
16:00−14ne118834 0.0 1036173
19:00−23ssw119965 0.0 104310
22:00−25ssw119993 0.1 104510
25 january, tue
tue2501:00−27s119882 0.1 104610
04:00−28ssw119777 0.0 104610
07:00−29s119688 0.1 104710
10:00−27s119686 0.0 104616
13:00−18ne119030 0.0 1038135
16:00−16ene11895 0.0 1035104
19:00−23ssw119755 0.0 104111
22:00−24ssw119537 0.0 104211
26 january, wed
wed2601:00−25s119333 0.0 104211
04:00−26s1193100 0.0 104212
07:00−23sse1192100 0.0 104019
10:00−21s0191100 0.0 103828
13:00−12ene0276100 0.0 1031145
16:00−10sw0280100 0.0 1029123
19:00−14sw2285100 0.0 103244
22:00−15sw2384100 0.0 103343
27 january, thu
thu2701:00−15sw1286100 0.0 103342
04:00−16wsw1289100 0.0 103425
07:00−16sw1190100 0.0 103520
10:00−16wsw1191100 0.0 103643
13:00−12nw1188100 0.3 1034405
16:00−12nne118794 0.2 1034373
19:00−19ssw1110092 0.3 104010
22:00−21sw119999 0.1 104212
28 january, fri
fri2801:00−23ssw119881 0.1 104311
04:00−26ssw119870 0.0 104510
07:00−27ssw119859 0.1 104610
10:00−25s119875 0.0 104514
13:00−17ne119365 0.0 1039177
16:00−15ne119151 0.0 1036152
19:00−24ssw219946 0.0 104111
22:00−25ssw119777 0.0 104310